Location: N�rnberg
(49.4471°N, 11.0632°E)
Time: 19:47:13
(UTC+01:00)

Envisat - Pass Details

Date: 25 February 2026
Orbit: 761 x 763 km, 98.4° (Epoch: 6 March)

Event Time Altitude Azimuth Distance (km) Brightness Sun altitude
Rises 03:30:17 0° 11° (N) 3,236 6.8 -34.9°
Reaches altitude 10° 03:32:37 10° 8° (N) 2,306 5.9 -34.5°
Enters shadow 03:34:10 20° 3° (N) 1,712 5.0 -34.3°
